[Iaude] MPEC C32: 2024 CC [a=0.94,e=0.23,i=1.9,H=25.2]
    mpec at marsden.cfa.harvard.edu 
    mpec at marsden.cfa.harvard.edu
       
    Fri Feb  2 20:15:09 EST 2024
    
    
  
M.P.E.C. 2024-C32                              Issued 2024 February 3, 01:13 UT
     The Minor Planet Electronic Circulars contain information on unusual
         minor planets, routine data on comets and natural satellites,
         and occasional editorial announcements.  They are published
    on behalf of Division F of the International Astronomical Union by the
          Minor Planet Center, Smithsonian Astrophysical Observatory,
                          Cambridge, MA 02138, U.S.A.
			  
             Prepared using the Tamkin Foundation Computer Network
                              MPC at CFA.HARVARD.EDU
            URL https://www.minorplanetcenter.net/    ISSN 1523-6714
                                    2024 CC                                     
Observations:
     K24C00C  C2024 01 31.45697910 01 21.618-13 58 12.30         18.99GVEC032F52
     K24C00C  C2024 01 31.46734510 01 10.280-13 56 45.44         18.86GVEC032F52
     K24C00C* C2024 02 02.53165209 31 42.578-09 33 50.18         19.00oVEC032T08
     K24C00C  C2024 02 02.53488609 31 39.965-09 33 27.32         19.02oVEC032T08
     K24C00C  C2024 02 02.56544809 31 15.194-09 29 54.82         18.85oVEC032T08
     K24C00C  C2024 02 02.59400309 30 52.435-09 26 36.10         18.91oVEC032T08
     K24C00C KC2024 02 02.91808509 27 17.63 -08 51 52.7          19.5 GXEC032595
     K24C00C KC2024 02 02.92424109 27 15.52 -08 51 05.7          19.0 GXEC032958
     K24C00C KC2024 02 02.92636609 27 11.38 -08 50 59.5          19.4 GXEC032595
     K24C00C KC2024 02 02.93225409 27 09.47 -08 50 12.5          18.8 GXEC032958
     K24C00C KC2024 02 02.93465009 27 05.12 -08 50 06.0          19.7 GXEC032595
     K24C00C KC2024 02 02.95107009 26 52.76 -08 48 19.0          19.3 GXEC032595
     K24C00C KC2024 02 02.95914909 26 46.67 -08 47 25.8          19.6 GXEC032595
     K24C00C KC2024 02 02.96824409 26 39.69 -08 46 24.9          19.4 GVEC032L01
     K24C00C KC2024 02 02.96972809 26 38.57 -08 46 15.4          19.3 GVEC032L01
     K24C00C KC2024 02 02.97121509 26 37.45 -08 46 05.8          19.2 GVEC032L01
     K24C00C KC2024 02 02.97182 09 26 37.63 -08 45 58.9          19.5 GVEC032104
     K24C00C KC2024 02 02.97282309 26 36.24 -08 45 55.3          19.2 GVEC032L01
     K24C00C KC2024 02 03.02402 09 25 58.18 -08 40 18.9                VEC032104
Observer details:
104 San Marcello Pistoiese.  Observers P. Bacci, M. Maestripieri.  Measurer P.
    Bacci.  0.60-m f/4.0 reflector + CCD.
595 Farra d'Isonzo.  Observer E. Pettarin.  0.61-m f/4.5 reflector + CCD.
958 Observatoire de Dax.  Observers P. Dupouy, J. B. de Vanssay.  Measurer P.
    Dupouy.  0.43-m f/2.7 Reflector + CCD.
F52 Pan-STARRS 2, Haleakala.  Observers J. Herman, T. Lowe, P. Minguez, A.
    Schultz, I. Smith.  Measurers K. Chambers, T. de Boer, J. Fairlamb, H.
    Gao, M. Huber, C.-C. Lin, E. Magnier, Y. Ramanjooloo, R. Wainscoat, R.
    Weryk.  1.8-m Ritchey-Chretien + CCD.
L01 Visnjan Observatory, Tican.  Observer K. Korlevic.  1.0-m f/2.9 reflector
    + CCD.
T08 ATLAS-MLO, Mauna Loa.  Observers L. Denneau, R. Siverd, J. Tonry, H.
    Weiland.  Measurers L. Denneau, N. Erasmus, A. Fitzsimmons, A. Lawrence,
    J. Robinson, R. Siverd, J. Tonry, H. Weiland.  0.5-m Reflector + CCD.
Orbital elements:
2024 CC                                                  Earth MOID = 0.0096 AU
Epoch 2023 Sept. 13.0 TT = JDT 2460200.5                Veres                   
M 306.32571              (2000.0)            P               Q                  
n   1.08973636     Peri.   80.97384     +0.98864676     -0.14681465             
a   0.9352372      Node   287.46366     +0.12129711     +0.90543491             
e   0.2256635      Incl.    1.92153     +0.08868261     +0.39828768             
P   0.90           H   25.21          G   0.15           U   7                  
Residuals in seconds of arc
240131 F52  0.1+  0.1-    240202 958  0.1-  1.1-    240202 L01  0.0   0.1+
240131 F52  0.1-  0.1+    240202 595  0.1+  0.2-    240202 L01  0.0   0.0
240202 T08  0.0   0.4-    240202 958  0.8-  0.2+    240202 104  0.9+  0.0
240202 T08  0.4+  0.0     240202 595  0.1+  0.6-    240202 L01  0.1+  0.0
240202 T08  0.0   0.1-    240202 595  0.8+  0.6-    240203 104  0.3+  0.3-
240202 T08  0.6-  0.3-    240202 595  1.1+  0.0
240202 595  0.0   0.5+    240202 L01  0.1-  0.3+
Ephemeris:
2024 CC                  a,e,i = 0.94, 0.23, 2                   q = 0.7242
Date    TT    R. A. (2000) Decl.     Delta      r    Elong.  Phase     V
2024 01 04    18 01 03.8 -21 59 55   0.07844 0.9069    12.6   166.3    33.4
...
2024 01 19    15 39 49.8 -31 36 59   0.03357 0.9669    58.8   119.5    22.6
...
2024 01 27    11 42 23.1 -25 37 32   0.02675 0.9967   116.3    62.3    19.6
...
2024 02 02    09 38 34.0 -10 34 28   0.03696 1.0177   150.6    28.3    19.3
2024 02 03    09 26 17.1 -08 40 04   0.03949 1.0211   153.9    25.2    19.4
2024 02 04    09 15 36.1 -06 57 28   0.04217 1.0245   156.4    22.6    19.5
...
2024 02 10    08 33 59.0 +00 11 34   0.06051 1.0437   159.8    19.1    20.2
...
2024 02 18    08 09 43.6 +05 08 40   0.08883 1.0669   151.3    26.4    21.3
...
2024 03 04    08 00 03.8 +09 20 07   0.1490  1.1028   135.5    39.1    22.8
M. P. C. Staff               (C) Copyright 2024 MPC           M.P.E.C. 2024-C32
    
    
More information about the Iaude
mailing list